This demonstration page uses our WeatherBlox Daily Observations layout. Learn more.

38.89511, -77.03637

Hourly Observations for December 31, 2014

Temp ( °F °C ) Dew Point ( °F °C ) Humidity (%) Winds ( mph kmh ) Pressure ( in mb ) Visibility ( mi km ) Precip ( " mm )
12:52 am 00:52 Clear 30 -1 19 -7 64 64 WSW 5 7 30.42 1030 10 16.09344 0 0
1:52 am 01:52 Clear 30 -1 16 -9 55 55 SW 3 6 30.42 1030 10 16.09344 0 0
2:52 am 02:52 Partly Cloudy 30 -1 18 -8 59 59 NW 3 6 30.42 1030 10 16.09344 0 0
3:52 am 03:52 Mostly Cloudy 30 -1 16 -9 55 55 WSW 3 6 30.42 1030 10 16.09344 0 0
4:52 am 04:52 Mostly Cloudy 34 1 14 -10 44 44 WNW 9 15 30.42 1030 10 16.09344 0 0
5:52 am 05:52 Mostly Cloudy 32 0 14 -10 47 47 NNW 8 13 30.42 1030 10 16.09344 0 0
6:52 am 06:52 Partly Cloudy 32 0 16 -9 51 51 NW 8 13 30.45 1031 10 16.09344 0 0
7:52 am 07:52 Mostly Cloudy 32 0 16 -9 51 51 NNW 9 15 30.45 1031 10 16.09344 0 0
8:52 am 08:52 Mostly Cloudy 34 1 16 -9 48 48 NNW 9 15 30.45 1031 10 16.09344 0 0
9:52 am 09:52 Partly Cloudy 34 1 14 -10 44 44 NNW 10 17 30.48 1032 10 16.09344 0 0
10:52 am 10:52 Partly Cloudy 36 2 16 -9 44 44 NNW 10 17 30.45 1031 10 16.09344 0 0
11:52 am 11:52 Partly Cloudy 36 2 10 -12 35 35 N 6 9 30.42 1030 10 16.09344 0 0
12:52 pm 12:52 Mostly Cloudy 37 3 9 -13 30 30 WNW 13 20 30.39 1029 10 16.09344 0 0
1:52 pm 13:52 Mostly Cloudy 37 3 9 -13 30 30 W 7 11 30.39 1029 10 16.09344 0 0
2:52 pm 14:52 Partly Cloudy 37 3 7 -14 28 28 W 8 13 30.36 1028 10 16.09344 0 0
3:52 pm 15:52 Mostly Sunny 39 4 7 -14 26 26 WNW 6 9 30.36 1028 10 16.09344 0 0
4:52 pm 16:52 Mostly Sunny 36 2 7 -14 30 30 WSW 6 9 30.33 1027 10 16.09344 0 0
5:52 pm 17:52 Clear 36 2 7 -14 30 30 SW 3 6 30.33 1027 10 16.09344 0 0
6:52 pm 18:52 Clear 34 1 10 -12 38 38 SSW 5 7 30.33 1027 10 16.09344 0 0
7:52 pm 19:52 Clear 34 1 12 -11 41 41 SW 3 6 30.3 1026 10 16.09344 0 0
8:52 pm 20:52 Clear 34 1 10 -12 38 38 WSW 3 6 30.3 1026 10 16.09344 0 0
9:52 pm 21:52 Clear 34 1 12 -11 41 41 S 6 9 30.27 1025 10 16.09344 0 0
10:52 pm 22:52 Clear 30 -1 16 -9 55 55 S 6 9 30.27 1025 10 16.09344 0 0
11:52 pm 23:52 Clear 32 0 18 -8 55 55 WSW 3 6 30.27 1025 10 16.09344 0 0

Powered by AerisWeather